Location: Brantley
(31.5822°N, 86.2569°W)
Time: 07:01:19
(UTC+00:00)

Transit 2A Rocket - Pass Details

Date: 19 February 2026
Orbit: 583 x 900 km, 66.7° (Epoch: 8 March)

Event Time Altitude Azimuth Distance (km) Brightness Sun altitude
Rises 21:09:49 0° 215° (SW) 3,432 9.5 27.5°
Reaches altitude 10° 21:12:18 10° 219° (SW) 2,525 9.2 27.1°
Maximum altitude 21:18:07 57° 298° (WNW) 1,047 6.4 26.1°
Drops below altitude 10° 21:24:03 10° 17° (NNE) 2,571 7.4 25.0°
Sets 21:26:37 0° 21° (NNE) 3,499 8.0 24.5°
